COSMOS 2251 DEB, 37295

Orbit data source: Space-Track

COSMOS 2251 DEB, 37295 is space debris in LEO originally from a launch on Wed, 16 Jun 1993 UTC launched from the Plesetsk Missile And Space Complex (PKMTR). The debris from Iridium 33, an American commercial communications satellite, has been tracked extensively since its accidental collision with the defunct Russian satellite Cosmos 2251 in 2009. This event, occurring at high speed in low Earth orbit (LEO), generated thousands of pieces of space debris, significantly increasing the risk of further collisions. The Iridium 33 debris cloud has impacted space traffic management and orbital debris mitigation strategies, making it a subject of ongoing study in space situational awareness.

Loading next visibility...
Identifier
37295, 1993-036BJK
Orbit
LEO
Country
Flag of CISCIS
Related business
Manufacturer
Unknown
Mission
Spacecraft
Bus & Motor
Unknown
Mass
Unknown
Launch date (UTC)
1993-06-16 (33 years ago)
Launch vehicle
Unknown
Launch site
Plesetsk Missile And Space Complex (PKMTR)
Object type
Payload
Rocket body
Debris
Shape & HBR
Unknown shape, 0.1 m
Radar Cross Section
Small (<0.1 m²)

Expand to show TLE details & history
Last TLE update: 2 days ago

TLE from 2 days ago
0 COSMOS 2251 DEB
1 37295U 93036BJK 26205.42799382  .00002184  00000-0  39393-3 0  9991
2 37295  74.0028 209.9042 0046071 330.8210  29.0386 14.66471255855827
Epoch: 2026-07-24T10:16Z
TLE epoch observation values (Epoch: 2026-07-24T10:16:18.666Z)
Latitude
0.00008°
Longitude
113.67167°
Altitude
646.633 km
Speed
7.55 km/s
True Right ascension
13h 59m 37s
True Declination
0° 00' 00"
Sunlit
Object was in daylight at epoch
Visualization orbit readout
Latitude
Unknown
Longitude
Unknown
Altitude
Unknown
Speed
Unknown
Apparent Right ascension
Unknown
Apparent Declination
Unknown
Sunlit
N/A
Visualization observer readout
Local Sidereal Time
23:11:17
Azimuth
Unknown
Elevation
Unknown
Doppler factor
Unknown
Orbital elements
Apogee altitude
702.42 km
Perigee altitude
637.478 km
Semi-major axis
7,048.086 km
Eccentricity
0.00461
Inclination
74.0028°
RAAN
209.9042°
Arg. of periapsis
330.821°
True anomaly
29.29615°
Mean anomaly
29.0386°
Eccentric anomaly
29.16725°
Mean motion
3.66806 °/min
Orbital period
98.14 mins
BSTAR
0.00039393
Loading maneuver chart data...
Computing Atmospheric mass density...

Documentation

Showing up to 5 results
|